RYR24ZZ EDDK-EGSS

Flight info

Callsign RYR24ZZ
Flight time N/A
Altitude 32000
Route NVO2R NVO Y868 SOGRI L608 SUMUM Y6 TOSVA
Aircraft B738/M-SDE2E3FGHIRWXY/LB1

Departure

Time 2026-05-05 18:31
Airport Cologne Bonn Airport (EDDK)

Arrival

Time N/A
Airport London Stansted Airport (EGSS)
Time Latitude Longitude Altitude Speed Heading
2026-05-05 17:55 50.88245 7.11815 231 ft 0 kts 186°
2026-05-05 18:13 50.88263 7.11816 231 ft 4 kts 159°
2026-05-05 18:13 50.88275 7.11795 234 ft 4 kts 78°
2026-05-05 18:13 50.88267 7.11756 233 ft 2 kts 71°
2026-05-05 18:13 50.88266 7.11753 234 ft 0 kts 71°
2026-05-05 18:18 50.88267 7.11757 233 ft 1 kts 68°
2026-05-05 18:18 50.88283 7.11789 234 ft 6 kts 49°
2026-05-05 18:19 50.88299 7.11876 231 ft 11 kts 111°
2026-05-05 18:19 50.88255 7.11979 233 ft 11 kts 126°
2026-05-05 18:19 50.88253 7.11984 232 ft 0 kts 126°
2026-05-05 18:22 50.88253 7.11985 232 ft 1 kts 126°
2026-05-05 18:22 50.88240 7.12013 231 ft 6 kts 126°
2026-05-05 18:22 50.88193 7.12116 232 ft 17 kts 126°
2026-05-05 18:22 50.88114 7.12289 231 ft 21 kts 126°
2026-05-05 18:23 50.88020 7.12466 231 ft 21 kts 137°
2026-05-05 18:23 50.87925 7.12596 231 ft 14 kts 153°
2026-05-05 18:23 50.87832 7.12622 232 ft 14 kts 158°
2026-05-05 18:23 50.87760 7.12711 231 ft 13 kts 137°
2026-05-05 18:24 50.87695 7.12805 231 ft 13 kts 137°
2026-05-05 18:24 50.87625 7.12906 231 ft 15 kts 137°
2026-05-05 18:24 50.87539 7.13031 231 ft 18 kts 137°
2026-05-05 18:24 50.87438 7.13178 231 ft 21 kts 137°
2026-05-05 18:25 50.87324 7.13343 231 ft 23 kts 137°
2026-05-05 18:25 50.87284 7.13401 232 ft 23 kts 137°
2026-05-05 18:25 50.87092 7.13678 239 ft 22 kts 137°
2026-05-05 18:25 50.86982 7.13839 243 ft 21 kts 137°
2026-05-05 18:26 50.86874 7.13995 253 ft 21 kts 137°
2026-05-05 18:26 50.86764 7.14136 254 ft 20 kts 150°
2026-05-05 18:26 50.86651 7.14256 260 ft 19 kts 137°
2026-05-05 18:26 50.86553 7.14399 261 ft 19 kts 137°
2026-05-05 18:27 50.86458 7.14536 268 ft 18 kts 137°
2026-05-05 18:27 50.86367 7.14668 273 ft 18 kts 137°
2026-05-05 18:27 50.86278 7.14796 278 ft 17 kts 137°
2026-05-05 18:27 50.86193 7.14920 283 ft 16 kts 137°
2026-05-05 18:28 50.86042 7.15208 291 ft 17 kts 91°
2026-05-05 18:28 50.86107 7.15348 291 ft 16 kts 19°
2026-05-05 18:28 50.86218 7.15337 288 ft 16 kts 349°
2026-05-05 18:29 50.86288 7.15315 289 ft 15 kts 348°
2026-05-05 18:29 50.86382 7.15284 288 ft 10 kts 348°
2026-05-05 18:29 50.86430 7.15251 283 ft 7 kts 321°
2026-05-05 18:29 50.86447 7.15227 281 ft 0 kts 318°
2026-05-05 18:30 50.86449 7.15224 281 ft 2 kts 318°
2026-05-05 18:30 50.86550 7.15081 276 ft 49 kts 318°
2026-05-05 18:30 50.86979 7.14459 256 ft 115 kts 317°
2026-05-05 18:30 50.87708 7.13421 320 ft 160 kts 319°
2026-05-05 18:31 50.88538 7.12218 1011 ft 163 kts 317°
2026-05-05 18:31 50.89379 7.10928 1679 ft 175 kts 317°
2026-05-05 18:31 50.90243 7.09477 2237 ft 189 kts 315°
2026-05-05 18:31 50.91037 7.07724 2832 ft 204 kts 292°
2026-05-05 18:32 50.91228 7.05511 3554 ft 206 kts 266°
2026-05-05 18:32 50.90823 7.03271 4019 ft 219 kts 248°
2026-05-05 18:32 50.90256 7.00892 4258 ft 241 kts 251°
2026-05-05 18:32 50.89689 6.98299 4583 ft 261 kts 251°
2026-05-05 18:33 50.89091 6.95521 5186 ft 270 kts 251°
2026-05-05 18:33 50.88485 6.92694 6067 ft 271 kts 251°
2026-05-05 18:33 50.87880 6.89859 6882 ft 273 kts 251°
2026-05-05 18:33 50.87266 6.86984 7652 ft 277 kts 251°
2026-05-05 18:34 50.86645 6.84078 8445 ft 281 kts 250°
2026-05-05 18:34 50.86016 6.81131 9226 ft 284 kts 250°
2026-05-05 18:34 50.85387 6.78194 9976 ft 288 kts 250°
2026-05-05 18:34 50.84727 6.75108 10306 ft 308 kts 250°
2026-05-05 18:35 50.84015 6.71789 10554 ft 328 kts 250°
2026-05-05 18:35 50.83280 6.68365 11002 ft 321 kts 249°
2026-05-05 18:35 50.82805 6.66152 11087 ft 306 kts 250°